Location: Bremen
(53.0793°N, 8.8017°E)
Time: 11:58:09
(UTC+02:00)

Transit 2A Rocket - Pass Details

Date: 25 June 2024
Orbit: 582 x 910 km, 66.7° (Epoch: 19 July)

Event Time Altitude Azimuth Distance (km) Brightness Sun altitude
Rises 22:35:00 0° 244° (WSW) 3,200 8.4 -4.9°
Reaches altitude 10° 22:37:25 10° 251° (WSW) 2,330 7.8 -5.1°
Maximum altitude 22:42:34 44° 324° (NW) 1,132 6.6 -5.6°
Drops below altitude 10° 22:48:10 10° 36° (NE) 2,530 7.9 -6.1°
Sets 22:50:53 0° 43° (NE) 3,504 8.6 -6.3°
